GEFSSE_con_prob3kmehi_258.txt.gz
EHI
5 4 3 3 3 3 3 3 2 1 0 0 0 0 1 2 3 4 3 1 0 0 0 0 0 2 6 9 8 5 3 3 4 5 4 3 1 0 1 3 3 2 1
5 4 3 3 3 3 3 3 2 1 0 0 0 0 1 2 3 3 2 1 0 0 0 0 0 2 6 8 7 4 2 1 2 3 4 2 1 0 2 3 3 1 1
5 3 3 3 3 2 2 2 2 1 1 0 0 0 0 1 2 2 2 1 0 0 0 0 0 1 4 5 4 2 1 0 0 1 2 1 0 0 1 2 2 1 2
4 3 3 3 2 1 1 1 1 0 0 0 0 0 0 0 1 2 2 1 0 0 0 0 0 1 2 2 1 1 0 0 0 0 0 0 0 0 0 1 1 1 2
3 3 4 4 3 1 1 0 0 0 0 0 0 0 0 0 0 1 1 1 0 0 0 0 0 0 1 1 0 0 0 1 1 0 0 0 0 0 0 0 0 0 1
3 3 4 5 4 1 0 0 0 0 0 0 0 0 0 1 0 0 0 0 0 0 0 0 0 0 0 0 0 0 1 2 1 1 0 0 0 0 0 0 1 0 0
2 3 3 4 3 1 0 0 0 0 0 0 0 0 0 0 0 0 1 1 0 0 1 1 1 0 0 1 1 1 3 3 1 1 1 0 1 1 1 0 1 1 0
1 2 3 3 2 1 0 0 0 0 0 0 1 1 0 0 1 2 4 3 2 2 2 2 2 1 1 2 2 3 5 5 2 0 0 1 2 3 2 1 0 1 1
0 1 2 2 2 2 2 1 0 0 0 1 2 3 3 3 4 5 6 5 4 4 4 3 3 3 3 4 6 6 7 7 4 1 0 2 4 4 2 1 0 0 0
0 0 1 2 4 5 3 1 1 1 2 4 5 7 8 8 8 8 8 6 6 6 5 4 4 6 7 9 10 10 9 7 3 1 1 4 6 5 3 1 0 0 0
1 0 1 2 4 4 3 3 4 5 6 7 9 11 11 11 9 8 7 7 7 7 7 6 7 9 9 10 13 13 9 5 2 1 2 4 8 8 5 2 1 0 0
2 2 3 4 3 2 2 4 5 6 8 9 10 10 10 9 7 5 5 8 9 9 9 10 10 10 8 7 10 11 6 3 1 1 2 5 8 9 8 5 2 0 0
4 4 5 7 7 4 2 2 3 5 7 9 8 8 7 6 5 3 5 9 11 10 10 11 11 10 8 6 6 6 4 2 2 2 4 8 10 10 9 7 4 1 0
6 6 6 7 8 7 4 2 3 4 6 7 8 7 6 6 4 4 7 9 9 9 10 10 9 9 9 7 5 5 4 3 4 3 5 9 12 11 10 9 6 3 1
6 7 7 7 7 8 7 5 5 7 9 10 9 8 8 8 7 7 9 9 7 7 9 10 7 7 7 6 6 6 4 4 5 4 4 9 12 11 10 9 7 5 4
7 8 9 10 10 10 10 10 9 11 13 12 10 11 11 10 11 13 13 12 9 7 8 9 7 6 6 6 6 6 5 6 6 4 4 7 10 9 9 9 7 6 5
10 11 11 12 13 13 12 12 12 11 10 10 11 13 13 11 12 15 15 13 11 9 8 8 8 7 7 7 7 7 6 6 6 5 5 7 8 7 8 9 7 5 4
16 15 11 11 14 16 15 14 13 11 10 11 14 15 13 11 11 12 11 11 11 11 8 7 6 6 6 7 7 8 7 7 7 7 7 10 10 8 8 9 8 5 3
24 21 14 12 14 16 17 17 16 14 15 17 18 19 16 13 13 13 11 11 11 11 9 7 6 5 5 5 6 7 8 9 10 9 9 10 11 10 10 8 7 4 2
31 28 21 18 18 18 18 19 18 16 17 19 22 23 21 17 16 16 15 13 11 11 9 8 6 4 5 6 5 5 6 10 12 11 9 7 7 8 10 9 7 4 2
36 34 30 26 24 22 21 20 17 15 16 18 22 24 22 19 16 17 16 15 13 13 12 10 8 6 7 7 4 2 4 7 9 9 8 5 3 4 8 12 11 7 4
40 38 36 33 30 26 23 19 14 11 12 15 19 23 24 21 17 15 17 16 15 15 15 14 13 11 10 8 5 3 2 3 5 5 4 4 3 3 5 10 14 13 11
42 41 40 40 37 32 26 20 15 13 13 16 23 27 28 25 20 18 18 17 16 16 16 17 17 16 14 11 9 7 3 1 2 2 1 2 5 5 5 7 10 14 14
43 45 48 48 47 41 33 24 20 19 17 20 25 30 31 29 26 25 24 23 20 18 17 16 16 17 16 12 11 10 8 4 3 2 1 2 6 8 7 5 6 8 10
39 47 55 57 55 50 41 32 28 24 20 20 23 27 30 31 30 30 30 29 26 22 19 17 16 17 14 11 11 11 10 9 8 6 3 2 4 7 8 6 4 5 6
35 45 57 61 60 55 46 39 34 28 22 19 21 25 29 31 31 31 32 31 28 25 21 19 17 16 13 11 12 11 9 10 12 9 6 3 3 5 7 6 5 5 6

GEFSSE_con_prob3kmehi_264.txt.gz
EHI
0 0 1 2 3 3 3 2 2 3 3 4 7 8 6 3 1 0 0 0 0 1 2 2 1 2 4 5 4 2 4 6 6 4 1 0 0 1 1 1 1 1 1
0 1 2 3 3 3 3 3 3 2 2 3 5 5 4 1 0 0 0 0 0 1 2 1 1 2 3 3 3 2 4 6 6 4 2 1 2 3 4 3 2 1 1
1 2 3 5 5 4 3 3 3 2 2 2 2 2 1 0 0 0 0 0 0 1 1 0 1 2 2 2 2 2 3 6 6 4 2 1 3 4 6 5 3 2 1
1 2 4 6 7 6 4 3 3 3 2 1 1 0 0 0 0 0 0 0 1 1 0 0 0 1 1 0 1 2 3 4 4 3 1 1 1 2 4 4 2 2 2
0 1 4 6 7 7 5 4 3 3 2 1 0 0 0 0 0 0 0 0 1 1 0 0 0 0 0 0 0 2 3 3 2 1 0 0 0 0 1 2 1 1 1
0 1 3 7 8 7 6 6 4 3 2 1 0 0 0 0 0 0 0 0 1 1 0 0 0 0 0 0 0 1 2 2 1 0 0 0 0 0 0 0 0 0 0
1 0 3 7 8 7 7 7 5 4 2 1 1 1 0 0 1 1 1 1 1 2 1 1 1 0 1 1 0 1 2 2 1 0 0 0 0 1 1 0 0 0 0
1 0 2 5 5 6 7 7 6 4 2 1 2 2 2 2 2 2 2 2 3 3 3 3 3 2 3 2 2 2 3 3 1 0 0 0 1 2 2 1 0 0 0
1 0 1 1 2 3 5 5 5 5 3 3 4 5 5 5 4 4 4 4 4 4 4 5 5 5 5 6 5 5 5 3 1 0 0 0 2 4 4 2 0 0 0
0 0 0 0 0 1 1 2 3 5 6 7 7 8 8 8 7 6 6 6 6 5 6 7 7 6 7 8 8 8 6 2 0 0 0 1 3 6 6 4 1 1 0
0 0 0 0 0 0 0 0 1 3 6 8 8 7 8 8 7 6 7 8 8 8 9 9 8 7 6 7 8 8 5 1 0 0 0 1 5 7 6 5 4 2 1
0 0 0 0 0 0 0 0 0 1 3 4 4 3 4 5 4 5 6 8 9 10 9 8 8 7 5 4 5 5 3 1 0 0 0 1 5 6 4 4 6 4 2
0 0 0 0 0 0 0 0 0 0 0 0 1 1 1 1 1 2 3 5 6 6 5 5 5 4 3 2 1 2 2 2 1 0 0 1 3 4 3 4 7 7 5
1 0 0 0 0 0 0 0 0 0 0 1 1 1 0 0 0 0 1 2 2 2 2 1 1 1 1 1 0 1 3 3 1 0 0 1 2 2 3 5 8 9 8
4 2 1 0 0 0 0 0 0 0 1 1 1 1 0 0 0 0 0 0 0 0 1 1 0 0 0 0 0 1 3 3 1 0 0 1 2 3 4 6 7 9 10
6 5 3 1 0 0 0 0 0 0 1 0 0 1 1 1 1 1 0 0 0 1 1 1 0 0 0 0 0 1 2 2 1 0 0 1 3 3 3 4 6 7 9
7 6 4 2 1 0 0 0 0 1 1 1 2 3 3 3 3 2 1 1 1 1 1 1 0 0 0 0 0 0 1 1 0 0 0 0 1 1 1 2 4 5 5
10 9 6 4 1 0 0 1 1 1 3 4 5 5 5 5 5 4 3 2 2 1 0 0 0 0 0 0 0 0 0 0 0 0 0 0 0 0 0 1 3 3 3
12 10 6 3 1 1 1 1 2 2 3 5 6 7 8 9 8 6 4 3 3 2 1 0 0 0 0 0 0 0 0 0 0 0 0 0 0 0 0 1 2 2 2
11 8 5 3 2 1 1 1 2 2 3 4 6 8 10 10 9 6 4 3 2 2 1 0 0 0 0 0 0 0 0 0 0 0 0 0 0 0 0 0 1 1 1
9 7 5 5 4 3 2 2 2 2 2 3 4 6 8 8 7 7 6 4 2 1 0 1 2 1 0 0 0 0 0 0 0 0 0 0 0 0 0 0 0 0 1
10 9 7 7 7 6 5 5 2 1 1 2 3 4 5 5 5 7 8 6 4 2 2 2 3 2 0 0 0 0 0 0 0 0 0 0 0 0 0 0 0 0 0
16 13 10 9 10 10 10 8 4 1 0 2 3 4 5 6 7 8 8 7 7 5 4 4 3 1 0 0 0 0 0 0 0 0 0 0 0 0 0 0 0 0 0
21 20 18 15 14 13 13 12 8 3 1 2 5 6 7 8 10 11 9 7 7 6 6 5 3 1 0 0 0 0 0 0 0 0 0 0 0 0 0 0 0 0 0
24 26 26 23 18 14 14 13 10 5 3 4 5 8 9 10 11 12 11 9 8 7 6 4 2 0 0 0 0 0 0 0 0 0 0 0 0 0 0 0 0 0 0
26 29 32 28 19 14 14 12 10 7 5 5 6 8 10 10 11 12 11 11 10 8 6 4 1 0 0 0 0 0 0 0 0 0 0 0 0 0 0 0 0 0 0

GEFSSE_con_prob3kmehi_270.txt.gz
EHI
0 1 2 2 1 3 6 7 9 10 7 4 3 2 2 2 1 0 0 0 0 0 0 0 0 0 0 0 1 2 2 3 5 5 4 3 3 3 1 1 2 3 3
0 1 2 3 2 3 5 6 7 8 6 3 1 1 1 1 0 0 0 0 0 0 0 0 0 0 0 1 2 2 2 3 4 4 3 2 2 1 0 1 2 2 2
0 1 3 4 4 3 3 4 5 6 5 3 1 0 0 0 0 0 0 0 0 0 0 0 0 0 1 1 2 2 2 3 3 3 1 1 1 1 1 2 3 2 1
0 1 3 5 5 3 3 5 5 5 6 4 1 0 0 0 0 0 0 0 0 0 0 0 0 0 0 1 2 3 3 3 2 1 0 0 1 2 3 4 4 3 1
0 1 3 5 6 4 4 5 4 4 5 4 1 0 0 0 0 0 0 0 0 0 0 0 0 0 0 1 3 4 4 2 1 0 0 0 1 3 4 4 3 3 2
0 0 2 5 5 4 4 4 4 3 4 3 1 0 0 0 0 0 0 0 0 0 0 0 0 1 1 3 5 6 4 1 0 0 0 0 1 2 2 2 2 2 1
0 0 2 5 5 3 3 3 3 3 4 4 2 1 0 1 1 1 1 1 2 1 1 1 2 2 3 5 9 8 3 0 0 0 0 0 0 0 1 1 2 1 1
0 0 1 3 3 3 3 3 3 4 5 5 3 1 1 2 2 3 3 4 4 3 3 4 5 4 5 7 10 9 3 0 0 0 0 0 0 0 1 2 2 2 1
0 0 0 1 1 2 3 3 3 4 5 5 3 2 2 3 3 3 4 4 4 4 4 5 6 6 6 6 7 6 3 1 0 0 0 0 0 0 2 3 3 3 3
0 0 0 0 0 1 2 2 2 3 4 4 3 3 3 3 3 3 2 2 2 2 4 5 5 6 6 6 5 5 3 1 0 0 0 0 0 0 1 2 3 3 3
0 0 0 0 0 0 1 1 1 1 1 1 1 2 2 1 1 1 1 2 1 1 3 5 5 5 5 5 4 4 3 1 0 0 0 0 0 0 0 1 3 3 3
0 0 0 0 0 0 0 0 0 0 0 0 0 1 1 0 0 0 1 2 1 1 1 3 4 3 3 2 2 3 2 0 0 0 0 0 0 0 0 1 2 3 3
1 0 0 0 0 0 0 0 0 0 0 0 0 0 0 0 0 0 0 1 1 0 0 1 1 1 1 0 1 1 1 0 0 0 0 1 2 1 0 0 1 2 2
1 0 0 0 0 0 0 0 0 0 0 0 0 0 0 0 0 0 0 0 0 0 0 0 0 0 0 0 0 0 0 0 0 0 0 2 3 2 1 0 0 1 1
1 0 0 0 0 0 0 0 0 0 0 0 0 0 0 0 0 0 0 0 0 0 0 0 0 0 0 0 0 0 0 0 0 0 0 2 3 3 2 1 1 1 2
0 0 0 0 0 0 0 0 0 0 0 0 0 0 0 0 0 0 0 0 0 0 0 0 0 0 0 0 0 0 0 0 0 0 0 2 4 5 4 3 2 2 2
0 0 0 0 0 0 0 0 0 0 0 0 0 0 0 0 0 0 0 0 0 0 0 0 0 0 0 0 0 0 0 0 0 0 0 1 2 3 4 4 3 1 1
0 0 0 0 0 0 0 0 0 0 1 1 1 0 0 0 0 0 0 0 0 0 0 0 0 0 0 0 0 0 0 0 0 0 0 0 0 1 2 2 2 1 1
1 1 1 0 0 0 0 0 0 0 1 2 2 1 0 0 0 0 0 0 0 0 0 0 0 0 0 0 0 0 0 0 0 0 0 0 0 0 0 1 2 2 2
2 2 2 1 0 0 0 0 0 0 1 2 2 1 0 0 0 0 0 0 0 0 0 0 0 0 0 0 0 0 0 0 0 0 0 0 0 0 0 0 1 1 2
4 3 2 1 0 0 0 0 0 0 0 1 2 2 1 0 0 1 1 1 0 0 0 0 0 1 1 0 0 0 0 0 0 0 0 0 0 0 0 0 0 0 1
5 4 2 1 0 0 0 0 0 0 0 0 1 1 1 1 2 3 3 2 0 0 0 0 1 2 1 0 0 0 0 0 0 0 0 0 0 0 0 0 0 0 0
5 4 2 1 0 1 1 1 1 1 0 0 0 0 0 2 5 6 6 4 1 0 0 0 1 1 1 0 0 0 0 0 0 0 0 0 0 0 0 0 0 0 0
5 4 3 1 1 2 2 2 2 2 1 0 0 0 0 1 4 6 6 4 1 0 0 0 0 0 0 0 0 0 0 0 0 0 0 0 0 0 0 0 0 0 0
7 6 4 2 2 3 3 3 3 3 2 1 0 0 0 0 1 3 3 2 0 0 0 0 0 0 0 0 0 0 0 0 0 0 0 0 0 0 0 0 0 0 0
9 8 6 2 1 3 3 3 3 3 2 1 1 1 1 0 0 1 1 0 0 0 0 0 0 0 0 0 0 0 0 0 0 0 0 0 0 0 0 0 0 0 0

GEFSSE_con_prob3kmehi_276.txt.gz
EHI
0 1 2 3 3 1 0 0 0 0 0 0 0 0 0 0 0 0 0 0 0 1 2 3 4 5 4 2 3 5 6 5 4 2 1 1 2 2 2 1 1 3 5
0 1 3 4 3 2 1 0 0 0 0 0 1 1 1 1 1 1 1 0 0 0 1 2 3 3 2 1 1 3 4 4 3 1 0 1 2 2 1 1 2 3 3
0 1 3 4 4 3 1 1 1 0 0 1 2 2 2 2 2 2 1 0 0 0 1 1 1 1 1 0 0 1 3 3 1 0 0 0 1 1 0 1 2 3 2
0 1 3 4 3 3 3 2 2 1 0 1 2 3 3 3 3 2 1 0 0 0 1 0 0 0 0 0 0 1 2 2 1 0 0 0 0 0 1 1 2 2 1
0 1 2 3 4 3 3 3 3 2 1 0 1 1 2 2 1 1 0 0 0 0 0 0 0 0 0 0 0 1 1 1 0 0 0 0 0 0 1 1 2 2 1
0 0 1 3 4 4 3 3 2 3 2 1 0 0 1 1 0 0 0 0 0 1 1 0 0 0 0 0 0 0 0 0 0 0 0 0 0 1 1 1 1 1 1
0 0 1 2 3 3 2 2 2 2 3 2 1 1 1 2 1 1 0 0 1 2 1 1 2 2 1 1 1 0 0 0 0 0 0 0 1 1 1 0 0 0 0
0 0 0 1 1 2 2 2 2 3 3 3 3 3 3 4 5 4 2 2 3 3 1 1 3 4 2 2 2 1 0 0 0 0 0 0 1 2 1 0 0 0 0
0 0 0 0 1 2 2 2 3 3 4 5 5 5 5 7 8 6 4 3 3 3 1 2 3 4 3 4 4 2 1 0 0 0 0 0 1 2 1 1 2 1 1
0 0 0 0 0 1 1 1 3 4 4 4 6 6 7 7 6 5 3 2 2 2 2 2 3 3 3 4 4 4 2 1 0 0 0 1 2 2 1 2 3 3 2
0 0 0 0 0 0 0 1 2 4 3 3 5 6 7 6 4 2 2 2 2 2 2 3 4 3 3 3 4 5 3 1 0 0 1 2 3 2 1 1 2 3 3
1 0 0 0 0 0 1 2 3 3 2 2 3 5 7 7 5 3 3 4 3 1 2 3 4 3 2 2 3 4 3 1 0 0 2 4 4 3 2 1 1 2 1
2 1 0 0 0 0 1 2 3 2 2 2 3 4 5 6 6 6 5 4 2 1 1 2 2 2 1 0 1 2 2 1 0 0 2 4 4 3 2 2 1 1 1
2 1 1 1 0 0 2 3 2 1 2 4 5 5 4 5 6 5 3 2 1 0 0 1 2 1 0 0 0 1 1 1 1 1 1 3 3 3 2 1 2 2 2
1 1 2 1 0 0 3 4 2 1 2 4 6 6 4 5 5 4 2 1 1 0 0 0 1 0 0 0 0 0 1 1 1 2 2 2 3 4 3 2 3 3 4
0 0 1 1 0 0 2 4 3 1 2 3 4 5 5 5 4 3 3 2 0 0 0 0 0 0 0 1 0 0 0 0 1 1 1 2 3 4 5 4 3 4 4
0 0 0 0 1 1 1 2 2 1 1 1 1 3 4 4 4 4 4 2 1 1 0 0 0 0 0 0 0 0 0 0 0 0 0 1 1 2 4 4 3 3 3
1 1 1 1 1 2 2 1 1 0 0 0 0 1 2 3 5 6 5 4 3 2 1 0 0 0 0 0 0 0 0 0 0 0 0 0 0 1 2 3 2 2 2
1 2 2 1 1 2 3 2 1 1 1 0 0 1 1 1 3 5 6 6 5 3 1 1 0 0 0 0 0 0 0 0 1 1 0 0 0 0 1 1 2 2 2
1 1 2 2 2 2 4 4 3 2 2 1 1 2 2 1 1 2 5 7 6 4 2 1 0 0 1 1 1 1 1 1 2 1 0 0 0 0 0 1 1 1 1
3 4 4 4 5 5 6 6 5 2 2 1 2 3 3 2 2 2 3 5 7 7 5 2 0 0 1 2 2 2 3 3 2 1 0 0 0 0 0 0 0 0 0
4 5 6 7 8 8 8 7 6 4 2 1 2 4 5 4 3 2 2 4 7 9 7 3 1 0 1 3 3 3 4 4 2 0 0 0 0 0 0 0 0 0 1
3 5 6 7 8 9 9 9 9 8 5 3 3 5 6 4 2 1 2 4 7 8 6 3 1 1 2 3 3 3 3 3 2 1 0 0 0 0 0 1 1 1 1
4 5 6 8 9 10 10 9 10 10 8 6 5 6 5 4 2 1 1 3 5 4 3 3 1 2 4 4 3 3 3 3 2 1 0 0 0 0 0 0 1 1 1
6 7 9 11 12 12 11 11 11 10 9 7 6 6 4 3 3 2 2 3 3 3 2 1 1 2 5 5 4 4 4 3 2 1 0 0 0 0 0 0 0 1 1
7 8 11 14 14 13 12 12 13 11 8 7 6 6 4 4 4 3 4 4 3 3 3 1 0 2 6 6 4 5 5 3 2 1 1 0 0 0 0 0 1 2 2

GEFSSE_con_prob3kmehi_282.txt.gz
EHI
1 2 4 5 5 4 3 2 2 3 3 2 1 1 1 1 1 3 5 5 4 2 2 2 3 4 4 4 5 6 5 4 5 5 4 4 5 6 3 1 0 0 0
2 3 4 4 4 3 2 1 1 1 1 1 0 0 0 0 0 2 4 4 3 2 2 3 4 3 3 3 3 4 4 3 3 4 3 2 4 4 3 1 0 0 0
3 3 4 4 4 3 2 1 0 0 0 0 0 0 0 0 0 1 2 2 2 1 2 4 4 3 3 2 2 3 3 1 1 3 2 1 1 1 1 2 1 0 0
3 3 3 4 3 3 3 2 1 0 0 0 0 0 0 0 0 0 1 2 1 0 1 2 3 4 3 2 1 2 2 1 1 2 1 0 0 0 1 2 2 1 1
2 3 3 3 3 3 4 4 3 1 0 0 0 0 0 0 0 0 1 2 1 0 0 1 2 3 2 1 1 2 2 1 1 1 1 0 0 1 2 2 3 2 1
1 2 4 4 4 4 5 6 5 2 1 0 0 1 1 2 1 1 1 1 1 1 1 1 2 1 1 0 1 2 2 1 1 0 0 0 1 2 3 2 1 1 1
2 3 4 6 6 5 5 6 5 3 2 2 2 3 3 3 3 2 1 0 1 1 2 3 3 1 1 0 0 1 2 2 1 0 0 0 2 4 4 3 1 1 1
2 3 4 7 7 6 5 5 4 3 2 3 5 5 5 5 5 3 1 0 0 1 3 4 3 3 2 1 1 1 2 3 2 1 0 1 4 7 7 5 4 3 2
2 2 3 6 7 7 6 6 4 3 3 5 6 7 8 10 9 7 4 2 1 1 2 3 3 3 3 3 3 3 4 4 2 0 0 2 7 9 8 6 5 4 3
1 0 1 3 5 5 5 5 6 6 5 7 8 9 11 12 11 9 7 6 4 3 4 4 5 5 5 5 6 7 8 6 2 0 0 3 7 8 6 4 4 3 3
0 0 0 1 1 2 2 3 6 7 7 8 9 11 12 10 7 6 7 8 8 7 8 9 9 9 8 8 9 11 11 8 3 1 1 4 6 5 4 3 3 3 3
0 0 0 0 0 0 0 2 3 5 8 9 8 10 10 7 4 2 4 8 9 9 10 11 11 10 8 7 8 10 9 7 4 3 3 6 7 6 4 3 3 3 3
0 0 0 0 0 0 1 2 2 3 6 6 7 8 8 7 4 2 3 5 7 8 8 8 7 5 4 3 4 5 5 4 3 2 4 7 8 7 5 4 3 3 3
0 0 0 0 0 1 4 5 3 3 4 5 6 8 9 8 6 5 4 4 5 5 5 4 3 1 0 0 1 1 1 1 1 1 4 7 9 8 7 5 4 3 3
0 0 0 0 1 3 7 8 6 4 5 6 7 8 9 10 9 8 9 9 7 5 3 1 1 1 0 0 0 0 0 1 1 1 4 7 10 11 10 8 6 5 5
0 1 2 2 2 3 7 8 7 6 8 9 9 10 12 14 14 12 13 12 9 6 4 2 2 2 1 0 0 0 1 2 2 2 3 6 10 12 12 10 8 8 8
2 4 4 3 3 4 5 6 6 7 10 11 12 13 14 16 17 16 13 10 9 9 9 8 6 3 1 1 1 1 1 2 2 2 4 5 8 9 11 10 8 8 8
6 6 4 4 5 6 6 6 7 10 13 14 14 16 16 16 17 15 11 10 10 11 12 11 8 3 1 2 3 2 2 2 1 3 6 7 7 7 9 9 8 6 6
8 7 5 6 9 11 10 9 10 13 15 15 14 15 16 15 13 11 11 12 11 10 10 10 8 6 5 4 3 3 3 3 2 3 6 8 8 8 8 8 7 6 5
12 12 9 9 13 15 14 12 12 13 14 15 15 14 13 11 9 10 12 15 13 10 9 9 10 11 10 6 3 4 6 6 4 4 5 6 6 8 9 9 9 8 7
22 23 20 15 16 18 16 14 13 14 15 16 17 15 12 10 10 10 12 16 16 14 11 10 11 14 13 9 6 6 7 5 4 6 7 6 6 8 11 12 12 11 9
31 32 28 21 20 21 20 18 17 18 17 16 17 16 13 11 11 9 10 13 16 16 14 11 12 12 11 9 8 8 6 3 3 5 8 8 7 8 10 12 15 16 14
34 34 31 29 27 25 22 20 18 17 16 15 18 19 15 12 10 9 9 10 12 13 13 13 12 10 6 6 8 7 5 2 1 3 5 8 10 10 8 9 14 18 19
34 36 39 39 36 30 23 18 16 15 15 17 21 22 19 14 11 10 10 9 9 9 11 13 13 10 6 5 6 6 6 4 2 1 2 7 12 12 9 7 11 16 18
32 38 45 48 45 37 26 19 15 15 17 19 22 24 22 17 12 11 12 12 11 9 11 15 16 14 9 7 5 5 6 5 3 0 1 5 10 11 10 9 10 13 14
30 36 45 52 51 41 30 21 18 17 18 19 21 23 22 18 14 12 14 16 14 10 11 18 21 17 11 8 6 6 6 5 2 0 0 2 5 8 11 12 12 13 13

GEFSSE_con_prob3kmehi_288.txt.gz
EHI
0 2 6 10 11 11 10 10 9 7 6 6 5 4 3 2 2 3 4 4 2 1 2 2 3 5 3 1 2 4 4 4 3 2 1 0 0 1 3 3 1 1 2
1 3 7 10 11 11 10 10 9 7 6 5 3 3 3 3 3 3 3 3 1 0 1 2 3 5 4 2 3 4 4 3 3 3 2 0 0 1 3 2 0 1 2
1 4 7 9 10 10 10 10 9 8 7 5 3 2 4 5 4 4 3 2 1 0 0 1 3 4 5 5 5 4 3 2 3 2 1 0 0 2 2 1 0 0 1
1 3 5 8 9 8 9 9 9 8 8 7 4 4 6 6 6 5 4 2 1 1 1 1 1 3 5 6 4 3 2 2 1 1 0 0 0 1 1 1 1 1 1
1 1 4 7 9 8 8 9 9 8 8 8 6 6 6 6 5 4 4 3 2 2 1 0 1 3 3 3 2 2 3 3 1 0 0 0 0 0 0 1 2 2 2
0 0 3 7 9 8 7 8 8 6 5 6 6 6 6 5 5 4 4 4 4 3 1 0 1 2 2 1 0 2 4 4 1 0 0 0 0 0 1 2 3 3 3
1 1 3 6 8 7 7 7 6 4 3 4 5 5 5 5 5 5 5 5 6 4 2 1 1 2 2 2 1 2 4 4 1 0 0 0 0 0 2 3 4 3 3
2 2 3 6 7 6 7 7 6 4 3 3 5 6 5 5 5 5 5 6 6 5 3 2 2 2 3 3 2 3 4 4 1 0 0 0 0 0 2 3 4 3 2
1 2 4 5 4 4 6 6 6 5 4 4 5 7 6 5 4 5 7 7 6 5 4 3 3 3 3 4 4 4 4 4 2 0 0 0 0 1 2 3 4 3 3
0 1 2 2 1 1 3 4 5 4 3 3 5 7 7 4 3 4 7 7 5 4 5 5 5 5 4 4 5 4 4 4 2 0 0 0 1 2 4 4 4 3 3
0 0 1 1 0 0 0 2 3 2 1 1 2 4 4 2 1 2 4 5 5 5 6 7 7 8 7 5 4 3 3 3 2 0 1 1 2 3 5 5 5 4 3
0 0 0 0 0 0 0 1 1 1 0 0 0 1 1 0 0 0 1 3 4 4 5 5 6 7 6 4 3 3 3 3 2 1 2 4 4 3 5 5 4 3 3
0 0 0 0 0 0 0 1 0 0 0 0 0 0 0 0 0 0 0 1 1 1 1 2 2 2 2 2 1 1 2 3 3 2 4 6 6 5 4 4 3 2 3
0 0 0 0 0 0 0 0 0 0 0 1 1 1 1 0 0 0 0 0 0 0 0 0 0 0 0 0 0 0 1 2 2 2 3 6 6 5 5 4 3 3 3
0 0 0 0 0 0 0 0 0 0 0 1 2 2 2 1 0 0 0 0 0 0 0 0 0 0 0 0 0 0 0 1 1 1 2 4 5 6 6 5 4 3 3
1 1 0 0 0 0 0 0 0 0 0 1 2 2 2 1 0 0 0 0 0 0 0 0 0 0 0 0 0 0 0 0 0 0 0 1 4 6 6 5 5 4 4
2 1 1 1 0 0 0 0 0 0 0 0 1 1 2 1 0 0 0 0 0 0 0 0 0 0 0 0 0 0 0 0 0 0 0 0 1 3 5 7 6 5 5
2 2 2 2 1 1 1 0 0 0 0 0 0 1 2 2 0 1 1 1 0 0 0 0 0 0 0 0 0 0 0 0 0 0 0 0 0 1 3 6 8 7 6
4 4 4 3 2 2 2 2 2 2 1 1 1 1 2 1 1 1 2 1 0 0 0 1 1 1 0 0 0 0 0 0 0 0 0 0 0 0 1 3 6 6 7
6 6 6 5 4 3 3 3 4 5 4 2 1 1 2 3 2 2 3 2 0 1 1 2 2 1 0 0 0 0 0 0 0 0 0 0 0 0 0 1 2 4 5
7 7 7 7 5 4 2 3 4 6 5 2 1 2 3 4 3 3 3 2 2 2 3 3 2 1 0 0 0 0 0 0 0 0 0 1 0 0 0 0 0 1 2
10 9 8 8 6 4 3 4 5 6 5 3 2 3 2 2 2 3 4 3 3 3 3 3 3 1 0 0 0 0 0 0 0 0 0 0 0 1 1 1 0 0 1
13 12 10 10 9 7 7 7 7 7 6 4 4 3 1 0 1 2 4 4 4 4 3 3 3 3 1 0 0 0 0 0 0 0 0 0 0 1 1 1 0 0 0
16 13 11 12 13 11 11 11 11 9 7 6 5 3 1 1 1 2 4 4 4 5 4 3 4 4 2 0 0 0 0 0 0 0 0 0 0 0 0 0 0 0 0
17 15 13 15 15 13 12 13 12 11 8 6 5 4 3 2 3 3 4 4 4 4 3 3 3 3 1 0 0 0 0 0 0 0 0 0 0 0 0 0 0 0 0
19 18 17 17 16 14 13 13 12 11 9 6 4 4 3 3 3 4 5 4 4 3 3 3 2 1 0 0 0 0 0 0 0 0 0 0 0 0 0 0 0 0 0

GEFSSE_con_prob3kmehi_294.txt.gz
EHI
0 1 3 4 4 4 5 5 5 4 4 6 6 6 5 4 4 3 3 3 3 3 2 2 1 1 2 2 1 1 1 1 0 0 1 2 3 3 2 1 1 2 3
0 1 3 4 4 4 4 3 3 4 5 6 6 6 6 5 4 3 3 3 3 3 3 3 1 1 2 3 2 1 2 2 1 0 1 2 2 2 2 1 0 1 1
0 1 3 4 5 5 3 2 3 5 6 6 5 5 6 5 4 3 3 3 3 4 5 4 2 1 2 2 2 3 3 3 2 0 0 1 1 1 1 0 0 0 0
0 1 3 6 7 6 4 3 3 5 5 4 4 5 6 4 3 3 3 3 3 4 6 5 3 1 1 2 3 3 3 2 1 0 0 0 0 0 0 0 0 0 0
0 1 4 8 9 7 4 3 3 3 3 3 4 5 6 4 3 3 3 3 4 5 6 5 2 0 0 2 3 3 3 1 0 0 0 0 0 0 0 0 0 0 0
0 1 4 8 9 7 5 4 3 3 3 2 3 4 5 4 4 3 3 3 4 4 4 3 1 1 2 3 3 3 2 1 0 0 0 0 0 0 1 1 0 0 0
0 1 3 6 7 7 6 5 4 4 4 3 2 3 4 4 4 3 2 2 3 3 3 2 1 2 3 4 4 3 1 0 0 0 0 0 0 0 1 1 0 0 0
0 1 2 3 4 5 4 4 4 5 5 3 2 2 3 3 3 1 1 1 1 2 3 2 3 3 4 4 3 1 0 0 0 0 0 0 0 0 1 1 0 0 0
0 0 1 1 1 2 2 2 4 6 5 2 2 2 1 1 1 0 0 0 1 2 3 3 4 4 3 3 2 1 0 0 0 0 0 0 0 0 0 0 0 0 0
0 0 0 0 0 0 0 1 3 4 3 1 1 1 0 0 1 0 0 0 1 2 2 2 3 4 4 3 2 1 0 0 0 0 0 0 0 0 0 0 0 0 0
0 0 0 0 0 0 0 0 1 1 1 0 0 0 0 0 0 0 0 0 1 1 1 0 2 4 4 3 2 1 1 1 0 0 0 0 0 1 1 1 0 0 0
0 0 0 0 0 0 0 0 0 0 0 0 0 0 0 0 0 0 0 0 0 0 0 0 1 2 2 1 1 1 1 1 0 0 0 0 0 1 2 1 0 0 0
0 0 0 0 0 0 0 0 0 0 0 0 0 0 0 0 0 0 0 0 0 0 0 0 0 0 0 0 0 0 1 1 0 0 0 0 0 0 1 1 0 0 0
0 0 0 0 0 0 0 0 0 0 0 0 0 0 0 0 0 0 0 0 0 0 0 1 0 0 0 0 0 0 0 0 0 0 0 0 0 0 0 0 0 0 0
0 0 0 0 0 0 0 0 0 0 0 0 0 0 0 0 0 0 0 0 0 0 0 0 0 0 0 0 0 0 0 0 0 0 0 0 0 1 1 1 1 1 1
0 0 0 0 0 0 0 0 0 0 0 0 0 0 0 0 0 0 0 0 0 0 0 0 0 0 0 0 0 0 0 0 0 0 0 0 0 1 2 2 2 3 3
0 0 0 0 0 0 0 0 0 0 0 0 0 0 0 0 0 0 0 0 0 0 0 0 0 0 0 0 0 0 0 0 0 0 0 0 0 1 1 1 2 3 4
0 0 0 0 0 0 0 0 0 0 0 0 0 0 0 0 0 0 0 0 0 0 0 0 0 0 0 0 0 0 0 0 0 0 0 0 0 0 0 0 1 2 3
0 0 0 0 0 0 0 0 0 0 0 0 0 0 0 1 1 1 0 0 0 0 0 0 0 0 0 0 0 0 0 0 0 0 0 0 0 0 0 0 0 1 2
0 0 0 0 0 0 0 0 0 0 0 0 0 0 0 1 2 2 1 0 1 1 0 0 0 0 0 0 0 0 0 0 0 0 0 0 0 0 0 0 0 0 1
0 0 0 0 0 0 0 0 0 0 0 0 0 0 0 0 1 2 2 1 2 2 1 0 0 0 0 0 0 0 0 0 0 0 0 0 0 0 0 0 0 0 0
1 1 1 1 1 0 0 1 0 0 0 0 0 0 0 0 0 1 1 2 3 3 1 0 0 0 0 0 0 0 0 0 0 0 0 0 0 0 0 0 0 0 0
2 2 3 3 2 1 2 3 3 1 1 2 1 0 0 0 1 1 1 3 3 3 2 2 2 1 1 0 0 0 0 0 0 0 0 0 0 0 0 0 0 0 0
3 4 4 4 3 2 4 6 6 4 2 3 3 2 1 1 2 2 3 3 3 3 3 4 4 3 2 1 0 0 0 0 0 0 0 0 0 0 0 0 0 0 0
3 4 5 4 2 2 5 7 7 6 4 4 4 3 2 3 3 3 3 3 3 3 3 4 3 2 1 1 0 0 0 0 0 0 0 0 0 0 0 0 0 0 0
3 4 5 4 1 3 6 8 8 7 6 5 4 3 3 3 3 3 3 3 3 3 3 2 1 1 1 0 0 0 0 0 0 0 0 0 0 0 0 0 0 0 0

GEFSSE_con_prob3kmehi_300.txt.gz
EHI
0 1 4 5 4 2 1 0 1 1 0 0 0 0 0 1 1 1 1 2 3 4 3 2 2 1 2 3 3 2 1 0 1 2 2 3 3 4 5 4 1 1 3
0 1 4 6 4 3 1 1 1 1 1 0 0 0 1 2 2 2 2 3 3 4 4 4 3 2 3 3 3 2 1 0 0 1 1 2 3 3 4 3 2 1 2
0 1 4 6 5 3 2 2 1 1 1 1 1 0 1 2 3 3 3 3 3 4 4 4 4 3 3 3 1 1 0 0 0 0 0 1 1 2 3 3 3 3 2
0 1 3 4 4 4 4 5 4 2 1 1 2 1 1 2 3 3 3 3 3 3 3 3 3 3 3 2 1 0 0 0 0 0 0 0 0 1 1 2 3 3 3
0 1 2 3 4 5 6 7 6 4 2 2 2 2 2 2 2 3 3 3 3 3 3 3 3 3 3 3 1 0 0 0 0 0 0 0 0 0 0 1 2 2 2
0 1 2 3 4 5 6 6 5 4 3 3 3 3 2 1 1 1 2 2 2 3 3 3 3 3 4 4 2 1 0 0 0 0 0 0 0 0 0 0 0 0 1
0 1 2 3 4 4 4 3 4 4 3 3 3 3 2 1 0 0 1 1 1 1 2 2 2 2 3 3 2 1 0 0 0 0 0 0 0 0 0 0 0 0 0
0 0 1 2 3 2 2 2 4 4 3 2 2 2 1 1 0 0 0 0 0 0 1 1 1 1 1 2 1 0 0 0 0 0 0 0 0 0 0 0 0 0 0
0 0 0 1 2 2 2 3 4 4 2 1 1 0 0 0 0 0 0 0 0 0 0 0 0 0 0 0 0 0 0 0 0 0 0 0 0 0 0 0 0 0 0
0 0 0 0 1 1 2 3 3 3 1 0 0 0 0 0 0 0 0 1 1 1 0 0 0 0 1 1 1 1 1 0 0 0 0 1 1 1 0 0 0 0 0
0 0 0 0 1 1 1 1 2 2 1 0 0 0 0 0 0 0 0 1 2 1 0 0 0 1 1 2 2 2 1 0 0 0 1 2 2 1 0 0 0 0 0
0 0 0 0 1 2 1 0 1 2 1 1 0 0 0 0 0 0 0 1 1 0 0 0 0 1 1 1 1 2 1 0 1 1 1 3 2 1 0 0 0 0 0
0 0 0 0 1 1 1 1 2 2 2 2 1 0 0 0 0 0 0 0 0 0 0 0 0 0 0 0 0 0 0 1 2 2 1 1 1 0 0 0 0 0 0
0 0 0 0 0 0 1 2 3 3 3 3 2 1 0 0 0 0 0 0 0 0 0 0 0 0 0 0 0 0 1 2 3 2 2 2 1 1 0 0 0 0 1
0 0 0 0 0 0 0 1 3 3 3 3 3 2 1 0 0 0 0 1 1 1 1 0 0 0 0 0 0 0 1 2 2 1 2 2 2 2 1 1 1 1 1
0 0 0 0 0 0 0 1 2 2 2 2 2 2 2 1 1 0 0 1 1 2 2 1 0 0 1 0 0 0 0 1 1 0 1 1 2 3 2 2 2 1 1
1 0 0 0 0 0 0 0 1 1 1 1 0 1 2 3 2 1 0 0 1 2 3 2 1 1 1 0 0 1 1 0 0 0 0 0 1 2 3 4 3 2 1
1 0 0 1 1 1 1 0 0 0 0 0 0 1 2 2 3 2 1 1 3 4 4 3 2 2 1 1 2 2 2 1 0 0 0 0 0 1 3 4 4 2 1
1 1 1 3 3 3 2 1 1 0 0 0 1 1 1 1 2 3 3 3 4 6 5 4 3 3 2 3 3 2 2 2 0 0 0 0 0 0 1 2 2 1 1
1 2 3 4 5 4 3 3 2 1 0 0 1 2 1 1 2 4 4 4 5 5 6 6 6 5 4 4 3 1 1 1 0 0 0 0 0 0 1 1 1 1 2
4 4 5 5 6 4 3 3 3 1 1 2 2 2 2 3 4 5 6 5 5 5 5 6 8 7 6 6 4 1 0 0 1 1 0 0 0 0 1 0 0 1 2
7 6 6 6 6 5 4 4 4 3 3 2 3 3 3 5 6 6 6 5 4 4 4 5 7 7 6 5 5 3 1 1 1 1 1 1 1 1 1 0 1 1 1
8 7 6 7 7 8 8 7 7 7 5 4 4 4 4 5 6 6 5 4 4 4 5 4 5 5 4 3 4 3 2 1 1 1 1 1 2 1 0 0 1 1 0
9 8 7 7 9 13 15 14 12 10 8 6 6 6 5 4 4 4 4 4 4 5 5 4 4 4 3 3 3 3 3 1 0 0 0 1 1 1 0 0 0 0 0
10 9 8 9 13 17 19 19 17 14 11 9 9 9 7 5 4 4 4 4 5 5 4 4 4 4 4 3 3 4 4 2 0 0 0 0 0 0 0 0 0 0 0
11 9 8 11 15 19 20 20 19 15 12 12 12 11 8 6 5 4 4 5 6 6 5 4 4 5 4 3 3 4 4 2 0 0 0 0 0 0 0 0 0 0 0

GEFSSE_con_prob3kmehi_306.txt.gz
EHI
3 4 5 5 5 6 6 5 3 2 1 1 0 0 0 0 0 0 0 1 2 3 3 2 1 2 5 6 6 7 7 6 5 4 3 3 3 3 3 4 4 5 6
3 4 6 6 6 6 6 5 2 2 1 1 0 0 0 0 0 0 0 0 1 3 3 3 2 2 5 6 6 7 7 6 5 4 3 3 3 3 3 4 4 4 4
3 4 6 8 8 7 6 3 2 2 2 2 1 0 0 0 0 0 0 0 1 2 3 3 2 2 3 5 6 7 7 6 5 4 3 2 2 3 3 4 5 4 4
3 4 6 9 10 8 7 4 2 2 3 3 2 1 0 0 0 0 0 0 2 3 3 3 2 2 3 4 5 6 6 5 4 3 1 0 1 3 3 4 5 5 5
2 4 7 10 10 9 8 6 4 4 3 3 3 1 0 0 0 0 0 0 1 2 4 3 3 4 4 4 5 4 4 3 3 2 1 0 1 3 4 4 4 5 6
2 5 8 10 10 10 9 8 8 6 5 4 4 2 1 0 0 0 0 0 0 1 3 4 4 4 3 4 4 3 2 2 2 1 1 1 2 4 5 4 4 4 5
2 5 8 10 11 11 10 9 9 9 7 6 5 4 3 1 0 0 0 0 0 0 2 3 3 2 2 3 4 3 2 2 2 1 3 4 4 5 6 5 4 4 4
1 3 7 10 12 14 12 9 9 10 9 8 7 5 4 2 1 0 0 1 0 0 0 1 1 0 1 2 3 2 2 2 1 1 4 5 6 6 7 6 6 5 3
1 2 4 7 11 13 12 11 10 10 9 9 8 6 4 2 1 0 0 0 0 0 0 0 1 0 1 2 3 3 3 3 2 1 3 6 8 9 7 5 5 5 3
2 2 2 3 6 8 9 10 10 9 8 9 9 8 6 3 2 0 0 1 1 1 1 1 3 2 3 4 5 6 6 5 3 1 3 7 11 11 7 5 4 3 2
2 2 1 0 1 2 5 8 9 9 8 8 9 9 8 5 2 0 1 3 3 2 2 3 4 5 6 6 8 11 9 5 2 2 4 8 10 9 7 5 4 3 1
1 1 0 0 1 1 3 6 8 8 8 9 9 10 9 6 2 1 3 4 5 6 5 4 5 6 5 5 8 11 9 4 2 2 5 8 8 7 7 6 5 3 2
1 0 0 1 2 3 4 6 6 6 7 8 9 9 8 6 4 4 5 6 7 8 7 7 7 5 3 4 5 6 5 3 2 3 6 8 8 6 6 6 6 4 3
0 0 2 4 6 8 10 9 6 4 4 6 8 8 7 8 8 8 10 12 11 9 9 9 8 5 3 3 4 5 5 4 3 3 6 8 8 7 7 6 6 5 5
0 0 3 7 10 12 16 14 8 5 4 5 7 7 8 10 13 13 13 15 14 11 10 9 7 5 3 4 6 7 8 6 5 5 6 8 9 9 7 7 6 6 6
2 2 4 8 13 15 16 15 11 7 6 7 8 10 10 12 16 15 14 14 13 12 10 9 8 6 5 6 8 10 10 8 7 7 8 9 10 10 9 8 7 6 6
6 6 6 9 14 15 13 13 11 8 7 8 11 14 14 14 16 17 14 12 13 13 12 11 10 7 6 6 7 9 9 8 8 9 10 11 11 11 10 8 7 7 7
10 10 8 8 12 14 13 12 10 8 7 8 12 16 17 16 17 17 14 12 13 15 15 13 11 9 7 7 7 8 9 9 9 9 11 12 12 12 11 9 8 8 8
13 13 11 9 10 13 14 13 11 9 8 8 12 17 19 18 16 16 14 13 13 14 15 14 13 11 10 8 7 7 9 10 9 8 8 10 12 13 11 9 8 8 7
17 18 16 14 14 15 16 15 12 10 9 10 13 18 19 16 15 15 15 16 15 14 15 15 14 14 13 9 6 5 7 9 8 7 4 4 7 10 10 9 8 7 6
21 25 25 22 21 20 18 16 14 11 10 11 13 17 17 15 15 16 16 18 17 15 15 17 17 15 12 9 7 5 6 6 8 7 5 3 4 6 8 10 10 9 8
26 29 31 29 27 22 16 13 14 13 11 11 12 15 17 16 15 16 17 19 19 16 16 18 18 15 11 9 9 7 6 5 5 6 7 7 6 7 8 11 13 14 14
25 28 31 32 29 21 15 13 14 15 13 11 13 18 19 17 15 17 20 21 20 17 15 14 15 15 12 10 9 7 5 3 2 3 5 8 11 11 9 9 12 15 16
21 24 30 34 31 24 19 17 17 17 14 13 15 20 21 20 18 19 22 24 22 17 11 9 10 12 12 10 8 8 6 2 0 1 2 6 10 12 8 6 9 12 13
18 22 31 38 36 31 24 21 21 20 17 15 17 20 21 22 21 21 25 27 23 16 10 8 9 11 13 11 9 8 5 2 1 0 1 4 7 9 8 6 7 10 12
17 21 31 40 41 35 27 23 23 22 19 18 18 19 21 22 22 22 26 28 24 17 12 11 12 14 15 12 9 7 4 2 1 1 1 3 5 6 7 8 8 10 12

GEFSSE_con_prob3kmehi_312.txt.gz
EHI
2 4 6 8 9 11 13 13 13 11 7 6 5 5 4 4 4 6 8 9 8 5 4 4 4 5 5 3 1 2 2 1 0 0 0 0 1 2 2 2 2 3 6
3 4 7 9 10 11 13 13 12 9 6 4 4 4 3 2 3 4 7 9 8 6 4 3 3 4 4 3 2 4 4 2 0 0 0 0 0 1 2 3 2 3 4
3 3 6 9 10 10 12 12 9 6 3 2 2 2 2 1 2 3 5 7 8 6 3 2 2 2 3 3 4 6 6 3 0 0 0 0 0 1 2 3 3 2 2
3 3 5 9 10 10 11 10 7 3 1 1 1 1 1 1 1 2 4 6 7 5 2 1 1 1 2 3 4 6 6 3 0 0 0 0 0 1 3 3 2 1 0
2 1 4 9 11 11 10 9 6 3 1 0 0 0 0 0 1 1 1 3 5 5 3 1 1 1 2 3 3 4 4 2 0 0 0 0 1 2 3 3 1 0 0
2 1 3 7 10 9 9 8 7 5 3 1 0 0 0 0 0 0 0 1 3 5 5 3 1 1 3 3 3 3 3 1 0 0 0 0 1 2 3 2 1 0 0
2 1 2 4 6 6 6 7 7 6 4 2 1 0 0 0 0 0 0 1 2 5 6 3 1 1 3 4 3 3 2 1 0 0 0 0 1 2 2 1 0 0 0
3 2 2 3 4 5 6 7 7 8 6 4 2 1 0 0 0 0 0 0 1 2 3 2 1 1 2 3 2 2 1 1 0 0 0 0 0 1 1 1 1 0 0
3 3 3 4 5 6 7 7 7 8 7 5 4 2 1 0 0 0 0 0 0 0 1 1 0 0 1 1 1 1 1 1 0 0 0 0 0 1 2 2 2 1 0
2 3 4 5 5 6 6 7 6 7 6 5 4 3 2 1 0 0 0 0 0 1 1 1 0 0 0 1 1 3 3 1 0 0 0 0 0 1 3 3 2 1 0
1 1 3 3 3 3 4 4 5 5 4 3 3 3 3 2 0 0 0 2 2 2 3 3 2 1 1 1 2 4 4 1 0 0 0 0 0 2 4 4 3 2 1
0 0 1 1 1 1 1 2 3 4 3 3 2 2 2 1 0 0 1 3 3 2 2 3 3 2 1 2 3 4 3 1 0 0 1 2 2 2 3 4 3 3 2
0 0 0 1 1 0 0 1 2 3 3 3 2 1 0 0 0 0 0 1 1 1 1 1 2 2 2 3 2 2 1 0 0 0 2 5 5 4 5 6 4 2 2
1 0 0 1 1 0 0 0 1 1 2 2 2 1 0 0 0 0 0 0 0 0 0 0 1 1 2 2 1 1 0 0 0 0 1 5 7 6 7 7 4 1 1
2 1 0 0 0 0 0 0 0 0 1 1 1 1 1 0 0 0 0 0 0 0 0 0 0 0 1 1 0 0 0 0 0 0 0 2 5 6 6 6 3 0 0
4 3 1 0 0 1 1 0 0 0 0 0 0 0 0 0 0 0 0 0 0 0 0 0 0 0 0 0 0 0 0 0 0 0 0 1 3 5 5 4 1 0 1
4 3 2 1 0 1 1 0 0 0 0 0 0 0 0 0 0 1 1 0 0 0 0 0 0 0 0 0 0 0 0 0 0 0 0 0 1 2 3 3 2 2 2
2 3 3 1 1 1 1 0 0 0 0 0 0 0 0 0 0 1 2 1 0 0 1 1 1 0 0 0 0 0 0 0 0 0 0 0 0 0 1 2 3 4 4
1 2 3 3 3 2 0 0 0 0 1 1 1 1 2 2 1 1 2 1 0 1 2 2 2 1 0 0 0 0 0 0 0 0 1 1 1 0 0 1 3 4 5
0 1 2 4 5 4 1 0 0 1 2 2 2 2 3 3 3 2 3 2 1 1 2 3 2 1 0 0 0 0 0 0 0 0 1 2 2 1 0 0 1 2 3
0 0 1 4 5 4 2 1 0 1 2 2 2 2 3 4 4 5 5 4 3 3 3 2 1 1 0 0 0 0 0 0 0 0 0 1 2 1 1 1 1 0 1
1 2 3 3 4 3 2 1 0 1 1 2 3 3 4 4 6 7 6 6 6 5 4 2 1 1 0 0 0 0 0 0 0 0 0 1 2 3 3 3 2 1 1
6 6 5 4 3 3 3 2 2 3 3 3 3 4 4 6 8 8 7 6 5 5 4 2 1 1 1 0 0 0 0 0 0 0 0 0 1 3 4 5 4 3 2
12 11 8 6 5 4 4 4 5 5 5 5 4 4 5 6 7 7 6 4 3 3 2 1 1 1 1 0 0 0 0 0 0 0 0 0 1 2 3 4 4 4 3
14 13 11 9 8 7 7 8 7 6 6 6 6 6 6 5 4 4 4 4 2 1 1 1 2 2 1 1 0 0 0 0 0 0 0 0 0 1 1 2 3 3 3
14 14 13 12 11 10 10 10 9 7 7 6 7 8 7 4 2 1 3 4 3 1 1 1 2 2 2 2 1 0 0 0 0 0 0 0 0 0 0 1 1 2 3